| time (UTC) | temp F | wind direction | speed MPH | gust MPH | rain 1hr in | rain 24hr in | rain mn in | humidity % | barometer mb |
| 20260508130041 | 84 | 335 | 3.0 | 43.0 | 0.00 | 0.00 | 0.00 | 100 | 1009.2 |
| 20260508125018 | 84 | 317 | 3.0 | 43.0 | 0.00 | 0.00 | 0.00 | 100 | 1009.0 |
| 20260508124018 | 85 | 339 | 3.0 | 43.0 | 0.00 | 0.00 | 0.00 | 100 | 1008.7 |
| 20260508123018 | 85 | 327 | 2.0 | 41.0 | 0.00 | 0.00 | 0.00 | 100 | 1008.5 |
| 20260508122019 | 85 | 261 | 2.0 | 23.0 | 0.00 | 0.00 | 0.00 | 100 | 1008.3 |
| 20260508121020 | 85 | 282 | 2.0 | 38.0 | 0.00 | 0.00 | 0.00 | 100 | 1008.2 |
| 20260508120022 | 86 | 275 | 2.0 | 42.0 | 0.00 | 0.00 | 0.00 | 100 | 1008.1 |
| 20260508115021 | 86 | 249 | 3.0 | 44.0 | 0.00 | 0.00 | 0.00 | 100 | 1008.1 |
| 20260508114017 | 86 | 249 | 2.0 | 42.0 | 0.00 | 0.00 | 0.00 | 100 | 1008.0 |
| 20260508113017 | 87 | 240 | 3.0 | 43.0 | 0.00 | 0.00 | 0.00 | 100 | 1008.1 |
| 20260508112018 | 87 | 242 | 3.0 | 44.0 | 0.00 | 0.00 | 0.00 | 100 | 1008.1 |
| 20260508111019 | 87 | 243 | 3.0 | 44.0 | 0.00 | 0.00 | 0.00 | 100 | 1008.1 |
| 20260508110019 | 87 | 241 | 2.0 | 16.0 | 0.00 | 0.00 | 0.00 | 100 | 1008.0 |
| 20260508105020 | 87 | 283 | 3.0 | 46.0 | 0.00 | 0.00 | 0.00 | 100 | 1008.0 |
| 20260508104039 | 87 | 294 | 2.0 | 39.0 | 0.00 | 0.00 | 0.00 | 100 | 1007.9 |
| 20260508103017 | 87 | 249 | 3.0 | 43.0 | 0.00 | 0.00 | 0.00 | 100 | 1007.8 |
| 20260508102039 | 87 | 272 | 2.0 | 41.0 | 0.00 | 0.00 | 0.00 | 100 | 1007.7 |
| 20260508101018 | 87 | 248 | 3.0 | 44.0 | 0.00 | 0.00 | 0.00 | 100 | 1007.7 |
| 20260508100040 | 88 | 254 | 3.0 | 43.0 | 0.00 | 0.00 | 0.00 | 100 | 1007.6 |
| 20260508095020 | 88 | 244 | 3.0 | 42.0 | 0.00 | 0.00 | 0.00 | 100 | 1007.4 |
| 20260508094016 | 88 | 255 | 2.0 | 40.0 | 0.00 | 0.00 | 0.00 | 100 | 1007.4 |
| 20260508093016 | 88 | 245 | 3.0 | 45.0 | 0.00 | 0.00 | 0.00 | 100 | 1007.5 |
| 20260508092018 | 88 | 324 | 2.0 | 33.0 | 0.00 | 0.00 | 0.00 | 100 | 1007.8 |
| 20260508091020 | 87 | 298 | 3.0 | 43.0 | 0.00 | 0.00 | 0.00 | 100 | 1008.0 |
| 20260508090020 | 86 | 255 | 2.0 | 39.0 | 0.00 | 0.00 | 0.00 | 100 | 1007.7 |
| 20260508085020 | 86 | 243 | 2.0 | 41.0 | 0.00 | 0.00 | 0.00 | 100 | 1007.4 |
| 20260508084016 | 86 | 243 | 3.0 | 42.0 | 0.00 | 0.00 | 0.00 | 100 | 1007.4 |
| 20260508083018 | 86 | 283 | 3.0 | 42.0 | 0.00 | 0.00 | 0.00 | 100 | 1007.4 |
| 20260508082017 | 85 | 335 | 3.0 | 47.0 | 0.00 | 0.00 | 0.00 | 100 | 1007.4 |
| 20260508081018 | 85 | 337 | 3.0 | 43.0 | 0.00 | 0.00 | 0.00 | 100 | 1007.5 |
| 20260508080041 | 85 | 302 | 2.0 | 42.0 | 0.00 | 0.00 | 0.00 | 100 | 1007.8 |
| 20260508075020 | 85 | 343 | 2.0 | 41.0 | 0.00 | 0.00 | 0.00 | 100 | 1008.0 |
| 20260508074016 | 85 | 324 | 3.0 | 43.0 | 0.00 | 0.00 | 0.00 | 100 | 1008.1 |
| 20260508073016 | 86 | 330 | 3.0 | 44.0 | 0.00 | 0.00 | 0.00 | 100 | 1008.5 |
| 20260508072017 | 86 | 326 | 2.0 | 41.0 | 0.00 | 0.00 | 0.00 | 100 | 1008.9 |
| 20260508071018 | 86 | 285 | 2.0 | 16.0 | 0.00 | 0.00 | 0.00 | 100 | 1008.9 |
| 20260508070020 | 86 | 298 | 2.0 | 40.0 | 0.00 | 0.00 | 0.00 | 100 | 1008.9 |
| 20260508065020 | 86 | 293 | 2.0 | 41.0 | 0.00 | 0.00 | 0.00 | 100 | 1009.1 |
| 20260508064020 | 86 | 347 | 3.0 | 43.0 | 0.00 | 0.00 | 0.00 | 100 | 1009.4 |
| 20260508063018 | 87 | 350 | 3.0 | 46.0 | 0.00 | 0.00 | 0.00 | 100 | 1009.6 |
| 20260508062018 | 89 | 352 | 2.0 | 33.0 | 0.00 | 0.00 | 0.00 | 100 | 1010.1 |
| 20260508061018 | 90 | 343 | 3.0 | 43.0 | 0.00 | 0.00 | 0.00 | 100 | 1010.0 |
| 20260508060019 | 91 | 355 | 3.0 | 43.0 | 0.00 | 0.00 | 0.00 | 100 | 1009.9 |
| 20260508055019 | 92 | 336 | 3.0 | 44.0 | 0.00 | 0.00 | 0.00 | 100 | 1009.3 |
| 20260508054021 | 92 | 307 | 2.0 | 22.0 | 0.00 | 0.00 | 0.00 | 100 | 1009.5 |
| 20260508053038 | 91 | 339 | 2.0 | 39.0 | 0.00 | 0.00 | 0.00 | 100 | 1009.7 |
| 20260508052017 | 91 | 339 | 3.0 | 45.0 | 0.00 | 0.00 | 0.00 | 100 | 1009.9 |
| 20260508051017 | 91 | 341 | 2.0 | 41.0 | 0.00 | 0.00 | 0.00 | 100 | 1010.3 |
| 20260508050019 | 91 | 343 | 3.0 | 47.0 | 0.00 | 0.00 | 0.00 | 100 | 1010.3 |
| 20260508045020 | 91 | 320 | 3.0 | 43.0 | 0.00 | 0.00 | 0.00 | 100 | 1010.4 |
| 20260508044020 | 91 | 338 | 3.0 | 43.0 | 0.00 | 0.00 | 0.00 | 100 | 1010.6 |
| 20260508043016 | 90 | 326 | 3.0 | 45.0 | 0.00 | 0.00 | 0.00 | 100 | 1010.7 |
| 20260508042037 | 90 | 324 | 3.0 | 46.0 | 0.00 | 0.00 | 0.00 | 100 | 1010.7 |
| 20260508041037 | 89 | 308 | 3.0 | 43.0 | 0.00 | 0.00 | 0.00 | 100 | 1010.8 |
| 20260508040019 | 89 | 335 | 2.0 | 38.0 | 0.00 | 0.00 | 0.00 | 100 | 1011.0 |
| 20260508035019 | 89 | 336 | 2.0 | 41.0 | 0.00 | 0.00 | 0.00 | 100 | 1011.1 |
| 20260508034040 | 89 | 341 | 2.0 | 41.0 | 0.00 | 0.00 | 0.00 | 100 | 1011.1 |
| 20260508033016 | 89 | 337 | 3.0 | 44.0 | 0.00 | 0.00 | 0.00 | 100 | 1011.0 |
| 20260508032017 | 88 | 301 | 2.0 | 35.0 | 0.00 | 0.00 | 0.00 | 100 | 1011.1 |
| 20260508031017 | 87 | 288 | 3.0 | 46.0 | 0.00 | 0.00 | 0.00 | 100 | 1011.2 |
| 20260508030018 | 87 | 277 | 2.0 | 35.0 | 0.00 | 0.00 | 0.00 | 100 | 1011.4 |
| 20260508025019 | 86 | 265 | 2.0 | 39.0 | 0.00 | 0.00 | 0.00 | 100 | 1011.4 |
| 20260508024020 | 86 | 292 | 3.0 | 43.0 | 0.00 | 0.00 | 0.00 | 100 | 1011.4 |
| 20260508023015 | 85 | 303 | 2.0 | 37.0 | 0.00 | 0.00 | 0.00 | 100 | 1011.4 |
| 20260508022017 | 85 | 261 | 2.0 | 39.0 | 0.00 | 0.00 | 0.00 | 100 | 1011.4 |
| 20260508021017 | 85 | 298 | 3.0 | 44.0 | 0.00 | 0.00 | 0.00 | 100 | 1011.3 |
| 20260508020018 | 85 | 329 | 2.0 | 40.0 | 0.00 | 0.00 | 0.00 | 100 | 1011.3 |
| 20260508015019 | 85 | 294 | 3.0 | 44.0 | 0.00 | 0.00 | 0.00 | 100 | 1011.1 |
| 20260508014040 | 85 | 341 | 3.0 | 44.0 | 0.00 | 0.00 | 0.00 | 100 | 1011.1 |
| 20260508013017 | 85 | 352 | 3.0 | 46.0 | 0.00 | 0.00 | 0.00 | 100 | 1010.9 |
| 20260508012036 | 84 | 350 | 3.0 | 42.0 | 0.00 | 0.00 | 0.00 | 100 | 1010.8 |
| 20260508011017 | 83 | 342 | 3.0 | 46.0 | 0.00 | 0.00 | 0.00 | 100 | 1010.7 |
| 20260508010018 | 83 | 333 | 3.0 | 45.0 | 0.00 | 0.00 | 0.00 | 100 | 1010.6 |
| 20260508005019 | 82 | 339 | 3.0 | 43.0 | 0.00 | 0.00 | 0.00 | 100 | 1010.6 |
| 20260508004019 | 81 | 343 | 2.0 | 41.0 | 0.00 | 0.00 | 0.00 | 100 | 1010.4 |
| 20260508003021 | 81 | 340 | 2.0 | 41.0 | 0.00 | 0.00 | 0.00 | 100 | 1010.3 |
| 20260508002038 | 80 | 294 | 2.0 | 32.0 | 0.00 | 0.00 | 0.00 | 100 | 1010.1 |
| 20260508001018 | 80 | 256 | 3.0 | 44.0 | 0.00 | 0.00 | 0.00 | 100 | 1010.1 |
| 20260508000039 | 80 | 259 | 2.0 | 26.0 | 0.00 | 0.00 | 0.00 | 100 | 1009.9 |
| 20260507235020 | 80 | 252 | 2.0 | 41.0 | 0.00 | 0.00 | 0.00 | 100 | 1009.8 |
| 20260507234039 | 80 | 244 | 3.0 | 43.0 | 0.00 | 0.00 | 0.00 | 100 | 1009.7 |
| 20260507233020 | 79 | 255 | 3.0 | 42.0 | 0.00 | 0.00 | 0.00 | 100 | 1009.6 |
| 20260507232016 | 79 | 252 | 2.0 | 37.0 | 0.00 | 0.00 | 0.00 | 100 | 1009.5 |
| 20260507231016 | 79 | 263 | 2.0 | 40.0 | 0.00 | 0.00 | 0.00 | 100 | 1009.4 |
| 20260507230017 | 79 | 260 | 3.0 | 44.0 | 0.00 | 0.00 | 0.00 | 100 | 1009.4 |
| 20260507225018 | 79 | 245 | 3.0 | 44.0 | 0.00 | 0.00 | 0.00 | 100 | 1009.3 |
| 20260507224020 | 80 | 249 | 3.0 | 45.0 | 0.00 | 0.00 | 0.00 | 100 | 1009.1 |
| 20260507223022 | 80 | 252 | 3.0 | 46.0 | 0.00 | 0.00 | 0.00 | 100 | 1009.1 |
| 20260507222016 | 80 | 253 | 3.0 | 46.0 | 0.00 | 0.00 | 0.00 | 100 | 1009.0 |
| 20260507221017 | 80 | 257 | 3.0 | 43.0 | 0.00 | 0.00 | 0.00 | 100 | 1008.9 |
| 20260507220038 | 80 | 247 | 3.0 | 44.0 | 0.00 | 0.00 | 0.00 | 100 | 1008.7 |
| 20260507215018 | 80 | 246 | 3.0 | 43.0 | 0.00 | 0.00 | 0.00 | 100 | 1008.7 |
| 20260507214019 | 80 | 248 | 2.0 | 36.0 | 0.00 | 0.00 | 0.00 | 100 | 1008.6 |
| 20260507213021 | 80 | 246 | 2.0 | 40.0 | 0.00 | 0.00 | 0.00 | 100 | 1008.6 |
| 20260507212017 | 80 | 249 | 2.0 | 19.0 | 0.00 | 0.00 | 0.00 | 100 | 1008.5 |
| 20260507211037 | 80 | 249 | 2.0 | 39.0 | 0.00 | 0.00 | 0.00 | 100 | 1008.5 |
| 20260507210037 | 80 | 252 | 2.0 | 41.0 | 0.00 | 0.00 | 0.00 | 100 | 1008.4 |
| 20260507205018 | 80 | 245 | 3.0 | 43.0 | 0.00 | 0.00 | 0.00 | 100 | 1008.4 |
| 20260507204019 | 80 | 266 | 2.0 | 41.0 | 0.00 | 0.00 | 0.00 | 100 | 1008.4 |
| 20260507203020 | 80 | 248 | 2.0 | 42.0 | 0.00 | 0.00 | 0.00 | 100 | 1008.3 |
| 20260507202015 | 80 | 244 | 3.0 | 46.0 | 0.00 | 0.00 | 0.00 | 100 | 1008.3 |
| 20260507201018 | 80 | 255 | 3.0 | 42.0 | 0.00 | 0.00 | 0.00 | 100 | 1008.2 |
| 20260507200018 | 80 | 248 | 3.0 | 43.0 | 0.00 | 0.00 | 0.00 | 100 | 1008.3 |
| 20260507195020 | 81 | 251 | 2.0 | 41.0 | 0.00 | 0.00 | 0.00 | 100 | 1008.5 |
| 20260507194019 | 81 | 250 | 3.0 | 42.0 | 0.00 | 0.00 | 0.00 | 100 | 1008.6 |
| 20260507193019 | 81 | 248 | 3.0 | 45.0 | 0.00 | 0.00 | 0.00 | 100 | 1008.7 |
| 20260507192036 | 81 | 245 | 3.0 | 45.0 | 0.00 | 0.00 | 0.00 | 100 | 1008.9 |
| 20260507191017 | 81 | 263 | 3.0 | 45.0 | 0.00 | 0.00 | 0.00 | 100 | 1009.1 |
| 20260507190018 | 81 | 256 | 3.0 | 45.0 | 0.00 | 0.00 | 0.00 | 100 | 1009.3 |
| 20260507185019 | 81 | 243 | 2.0 | 34.0 | 0.00 | 0.00 | 0.00 | 100 | 1009.4 |
| 20260507184019 | 81 | 244 | 3.0 | 43.0 | 0.00 | 0.00 | 0.00 | 100 | 1009.4 |
| 20260507183020 | 81 | 248 | 3.0 | 43.0 | 0.00 | 0.00 | 0.00 | 100 | 1009.6 |
| 20260507182037 | 81 | 247 | 2.0 | 30.0 | 0.00 | 0.00 | 0.00 | 100 | 1009.8 |
| 20260507181017 | 81 | 270 | 3.0 | 44.0 | 0.00 | 0.00 | 0.00 | 100 | 1009.8 |
| 20260507180017 | 81 | 340 | 3.0 | 42.0 | 0.00 | 0.00 | 0.00 | 100 | 1009.9 |
| 20260507175039 | 81 | 261 | 3.0 | 42.0 | 0.00 | 0.00 | 0.00 | 100 | 1009.9 |
| 20260507174019 | 81 | 251 | 3.0 | 43.0 | 0.00 | 0.00 | 0.00 | 100 | 1010.1 |
| 20260507173021 | 81 | 250 | 2.0 | 40.0 | 0.00 | 0.00 | 0.00 | 100 | 1010.2 |
| 20260507172057 | 81 | 256 | 2.0 | 28.0 | 0.00 | 0.00 | 0.00 | 100 | 1010.3 |
| 20260507171036 | 81 | 258 | 3.0 | 43.0 | 0.00 | 0.00 | 0.00 | 100 | 1010.3 |
| 20260507170022 | 81 | 260 | 3.0 | 42.0 | 0.00 | 0.00 | 0.00 | 100 | 1010.4 |
| 20260507165019 | 81 | 254 | 3.0 | 46.0 | 0.00 | 0.00 | 0.00 | 100 | 1010.5 |
| 20260507164040 | 81 | 257 | 3.0 | 43.0 | 0.00 | 0.00 | 0.00 | 100 | 1010.5 |
| 20260507163019 | 81 | 252 | 3.0 | 44.0 | 0.00 | 0.00 | 0.00 | 100 | 1010.6 |
| 20260507162016 | 81 | 249 | 2.0 | 31.0 | 0.00 | 0.00 | 0.00 | 100 | 1010.6 |
| 20260507161016 | 81 | 251 | 3.0 | 45.0 | 0.00 | 0.00 | 0.00 | 100 | 1010.5 |
| 20260507160017 | 81 | 255 | 3.0 | 45.0 | 0.00 | 0.00 | 0.00 | 100 | 1010.6 |
| 20260507155018 | 81 | 250 | 3.0 | 43.0 | 0.00 | 0.00 | 0.00 | 100 | 1010.6 |
| 20260507154019 | 81 | 247 | 2.0 | 40.0 | 0.00 | 0.00 | 0.00 | 100 | 1010.5 |
| 20260507153020 | 82 | 250 | 2.0 | 41.0 | 0.00 | 0.00 | 0.00 | 100 | 1010.5 |
| 20260507152036 | 82 | 243 | 3.0 | 44.0 | 0.00 | 0.00 | 0.00 | 100 | 1010.5 |
| 20260507151016 | 82 | 252 | 2.0 | 32.0 | 0.00 | 0.00 | 0.00 | 100 | 1010.4 |
| 20260507150017 | 82 | 265 | 2.0 | 40.0 | 0.00 | 0.00 | 0.00 | 100 | 1010.4 |
| 20260507145018 | 82 | 259 | 3.0 | 42.0 | 0.00 | 0.00 | 0.00 | 100 | 1010.4 |
| 20260507144019 | 82 | 258 | 2.0 | 40.0 | 0.00 | 0.00 | 0.00 | 100 | 1010.5 |
| 20260507143039 | 82 | 263 | 3.0 | 46.0 | 0.00 | 0.00 | 0.00 | 100 | 1010.6 |
| 20260507142016 | 82 | 247 | 3.0 | 46.0 | 0.00 | 0.00 | 0.00 | 100 | 1010.7 |
| 20260507141017 | 82 | 247 | 3.0 | 44.0 | 0.00 | 0.00 | 0.00 | 100 | 1010.8 |
| 20260507140039 | 82 | 291 | 2.0 | 39.0 | 0.00 | 0.00 | 0.00 | 100 | 1010.8 |
| 20260507135040 | 82 | 246 | 2.0 | 42.0 | 0.00 | 0.00 | 0.00 | 100 | 1010.6 |
| 20260507134019 | 82 | 257 | 2.0 | 41.0 | 0.00 | 0.00 | 0.00 | 100 | 1010.4 |
| 20260507133020 | 82 | 253 | 3.0 | 45.0 | 0.00 | 0.00 | 0.00 | 100 | 1010.5 |
| 20260507132017 | 82 | 253 | 2.0 | 41.0 | 0.00 | 0.00 | 0.00 | 100 | 1010.4 |
| 20260507131016 | 82 | 248 | 3.0 | 45.0 | 0.00 | 0.00 | 0.00 | 100 | 1010.2 |